Time,TemperatureF,DewpointF,PressureIn,WindDirection,WindDirectionDegrees,WindSpeedMPH,WindSpeedGustMPH,Humidity,HourlyPrecipIn,Conditions,Clouds,dailyrainin,SoftwareType,DateUTC
2013-03-04 00:00:00,30.1,18.3,30.02,WNW,298,1.0,3.0,61,0.00,,,0.00,Wunderground v.1.15,2013-03-04 05:00:00,
2013-03-04 00:02:00,29.9,18.5,30.02,West,274,0.0,1.0,62,0.00,,,0.00,Wunderground v.1.15,2013-03-04 05:02:00,
2013-03-04 00:07:00,30.1,18.3,30.02,NNW,333,2.0,4.0,61,0.00,,,0.00,Wunderground v.1.15,2013-03-04 05:07:00,
2013-03-04 00:12:00,30.5,18.3,30.02,NW,322,3.0,3.0,60,0.00,,,0.00,Wunderground v.1.15,2013-03-04 05:12:00,
2013-03-04 00:17:00,30.6,18.3,30.02,West,269,2.0,5.0,60,0.00,,,0.00,Wunderground v.1.15,2013-03-04 05:17:00,
2013-03-04 00:23:00,30.3,18.1,30.03,WNW,296,0.0,3.0,60,0.00,,,0.00,Wunderground v.1.15,2013-03-04 05:23:00,
2013-03-04 00:29:00,30.2,18.0,30.03,WNW,296,3.0,4.0,60,0.00,,,0.00,Wunderground v.1.15,2013-03-04 05:29:00,
2013-03-04 00:34:00,29.9,17.7,30.03,WNW,294,1.0,2.0,60,0.00,,,0.00,Wunderground v.1.15,2013-03-04 05:34:00,
2013-03-04 00:39:00,29.8,18.0,30.03,WNW,293,1.0,2.0,61,0.00,,,0.00,Wunderground v.1.15,2013-03-04 05:39:00,
2013-03-04 00:44:00,29.9,17.7,30.03,West,274,1.0,3.0,60,0.00,,,0.00,Wunderground v.1.15,2013-03-04 05:44:00,
2013-03-04 00:50:00,29.7,17.5,30.04,NW,306,1.0,2.0,60,0.00,,,0.00,Wunderground v.1.15,2013-03-04 05:50:00,
2013-03-04 00:55:00,29.8,17.6,30.03,WNW,282,0.0,2.0,60,0.00,,,0.00,Wunderground v.1.15,2013-03-04 05:55:00,
2013-03-04 01:00:00,29.6,17.4,30.03,West,281,1.0,2.0,60,0.00,,,0.00,Wunderground v.1.15,2013-03-04 06:00:00,
2013-03-04 01:06:00,29.5,17.3,30.03,West,281,3.0,3.0,60,0.00,,,0.00,Wunderground v.1.15,2013-03-04 06:06:00,
2013-03-04 01:11:00,29.6,17.8,30.03,West,275,3.0,3.0,61,0.00,,,0.00,Wunderground v.1.15,2013-03-04 06:11:00,
2013-03-04 01:17:00,29.4,17.2,30.03,WNW,296,3.0,3.0,60,0.00,,,0.00,Wunderground v.1.15,2013-03-04 06:17:00,
2013-03-04 01:23:00,29.4,17.2,30.03,West,279,1.0,3.0,60,0.00,,,0.00,Wunderground v.1.15,2013-03-04 06:23:00,
2013-03-04 01:29:00,29.5,17.3,30.04,WNW,294,2.0,3.0,60,0.00,,,0.00,Wunderground v.1.15,2013-03-04 06:29:00,
2013-03-04 01:35:00,29.7,17.5,30.04,WNW,288,3.0,6.0,60,0.00,,,0.00,Wunderground v.1.15,2013-03-04 06:35:00,
2013-03-04 01:40:00,29.6,17.4,30.04,NNW,332,2.0,3.0,60,0.00,,,0.00,Wunderground v.1.15,2013-03-04 06:40:00,
2013-03-04 01:45:00,29.6,17.4,30.04,WNW,295,3.0,3.0,60,0.00,,,0.00,Wunderground v.1.15,2013-03-04 06:45:00,
2013-03-04 01:50:00,29.6,17.0,30.04,NW,317,3.0,3.0,59,0.00,,,0.00,Wunderground v.1.15,2013-03-04 06:50:00,
2013-03-04 01:56:00,29.6,17.0,30.04,NW,315,3.0,4.0,59,0.00,,,0.00,Wunderground v.1.15,2013-03-04 06:56:00,
2013-03-04 02:01:00,29.5,16.9,30.04,NW,305,1.0,4.0,59,0.00,,,0.00,Wunderground v.1.15,2013-03-04 07:01:00,
2013-03-04 02:06:00,29.4,16.8,30.04,NW,312,3.0,4.0,59,0.00,,,0.00,Wunderground v.1.15,2013-03-04 07:06:00,
2013-03-04 02:11:00,29.4,16.4,30.04,NW,308,1.0,3.0,58,0.00,,,0.00,Wunderground v.1.15,2013-03-04 07:11:00,
2013-03-04 02:16:00,29.2,16.2,30.04,West,274,1.0,3.0,58,0.00,,,0.00,Wunderground v.1.15,2013-03-04 07:16:00,
2013-03-04 02:21:00,28.8,16.3,30.04,WNW,282,0.0,1.0,59,0.00,,,0.00,Wunderground v.1.15,2013-03-04 07:21:00,
2013-03-04 02:26:00,28.6,16.5,30.04,WNW,282,0.0,2.0,60,0.00,,,0.00,Wunderground v.1.15,2013-03-04 07:26:00,
2013-03-04 02:32:00,28.2,16.5,30.04,West,269,0.0,1.0,61,0.00,,,0.00,Wunderground v.1.15,2013-03-04 07:32:00,
2013-03-04 02:37:00,28.1,16.7,30.04,West,279,2.0,2.0,62,0.00,,,0.00,Wunderground v.1.15,2013-03-04 07:37:00,
2013-03-04 02:42:00,27.4,16.8,30.05,West,279,1.0,1.0,64,0.00,,,0.00,Wunderground v.1.15,2013-03-04 07:42:00,
2013-03-04 02:47:00,27.2,16.6,30.05,West,269,0.0,2.0,64,0.00,,,0.00,Wunderground v.1.15,2013-03-04 07:47:00,
2013-03-04 02:52:00,27.0,16.8,30.05,West,264,1.0,1.0,65,0.00,,,0.00,Wunderground v.1.15,2013-03-04 07:52:00,
2013-03-04 02:57:00,26.7,16.9,30.05,West,264,0.0,1.0,66,0.00,,,0.00,Wunderground v.1.15,2013-03-04 07:57:00,
2013-03-04 03:02:00,26.8,16.6,30.05,WSW,251,1.0,2.0,65,0.00,,,0.00,Wunderground v.1.15,2013-03-04 08:02:00,
2013-03-04 03:07:00,26.8,17.0,30.06,WSW,243,2.0,2.0,66,0.00,,,0.00,Wunderground v.1.15,2013-03-04 08:07:00,
2013-03-04 03:12:00,26.7,16.9,30.06,WSW,241,2.0,2.0,66,0.00,,,0.00,Wunderground v.1.15,2013-03-04 08:12:00,
2013-03-04 03:17:00,26.5,17.0,30.06,WSW,241,2.0,2.0,67,0.00,,,0.00,Wunderground v.1.15,2013-03-04 08:17:00,
2013-03-04 03:22:00,26.5,17.0,30.06,WSW,240,1.0,1.0,67,0.00,,,0.00,Wunderground v.1.15,2013-03-04 08:22:00,
2013-03-04 03:27:00,26.2,17.1,30.06,WSW,240,1.0,1.0,68,0.00,,,0.00,Wunderground v.1.15,2013-03-04 08:27:00,
2013-03-04 03:32:00,26.1,17.3,30.06,WSW,240,1.0,2.0,69,0.00,,,0.00,Wunderground v.1.15,2013-03-04 08:32:00,
2013-03-04 03:37:00,25.7,17.3,30.06,WSW,240,1.0,2.0,70,0.00,,,0.00,Wunderground v.1.15,2013-03-04 08:37:00,
2013-03-04 03:42:00,25.4,17.6,30.07,WSW,240,1.0,2.0,72,0.00,,,0.00,Wunderground v.1.15,2013-03-04 08:42:00,
2013-03-04 03:47:00,25.4,17.6,30.07,WSW,240,2.0,3.0,72,0.00,,,0.00,Wunderground v.1.15,2013-03-04 08:47:00,
2013-03-04 03:52:00,25.5,17.7,30.07,WSW,240,2.0,2.0,72,0.00,,,0.00,Wunderground v.1.15,2013-03-04 08:52:00,
2013-03-04 03:57:00,25.4,17.6,30.07,WSW,237,1.0,2.0,72,0.00,,,0.00,Wunderground v.1.15,2013-03-04 08:57:00,
2013-03-04 04:02:00,25.4,17.6,30.07,WSW,237,1.0,2.0,72,0.00,,,0.00,Wunderground v.1.15,2013-03-04 09:02:00,
2013-03-04 04:07:00,25.1,17.7,30.07,WSW,237,1.0,2.0,73,0.00,,,0.00,Wunderground v.1.15,2013-03-04 09:07:00,
2013-03-04 04:12:00,24.6,17.5,30.07,WSW,237,1.0,1.0,74,0.00,,,0.00,Wunderground v.1.15,2013-03-04 09:12:00,
2013-03-04 04:17:00,24.7,17.9,30.07,WSW,237,0.0,1.0,75,0.00,,,0.00,Wunderground v.1.15,2013-03-04 09:17:00,
2013-03-04 04:22:00,24.7,17.9,30.08,WSW,237,0.0,1.0,75,0.00,,,0.00,Wunderground v.1.15,2013-03-04 09:22:00,
2013-03-04 04:28:00,24.5,17.7,30.07,WSW,237,1.0,1.0,75,0.00,,,0.00,Wunderground v.1.15,2013-03-04 09:28:00,
2013-03-04 04:33:00,24.0,17.5,30.08,WSW,237,1.0,1.0,76,0.00,,,0.00,Wunderground v.1.15,2013-03-04 09:33:00,
2013-03-04 04:38:00,23.8,17.6,30.08,WSW,237,2.0,2.0,77,0.00,,,0.00,Wunderground v.1.15,2013-03-04 09:38:00,
2013-03-04 04:43:00,23.5,17.6,30.08,WSW,237,1.0,2.0,78,0.00,,,0.00,Wunderground v.1.15,2013-03-04 09:43:00,
2013-03-04 04:48:00,23.5,17.9,30.08,WSW,237,2.0,3.0,79,0.00,,,0.00,Wunderground v.1.15,2013-03-04 09:48:00,
2013-03-04 04:53:00,23.6,18.0,30.08,WSW,237,1.0,2.0,79,0.00,,,0.00,Wunderground v.1.15,2013-03-04 09:53:00,
2013-03-04 04:58:00,23.7,18.1,30.09,WSW,237,2.0,2.0,79,0.00,,,0.00,Wunderground v.1.15,2013-03-04 09:58:00,
2013-03-04 05:03:00,23.7,17.8,30.09,WSW,237,1.0,2.0,78,0.00,,,0.00,Wunderground v.1.15,2013-03-04 10:03:00,
2013-03-04 05:08:00,23.6,17.7,30.09,WSW,237,1.0,2.0,78,0.00,,,0.00,Wunderground v.1.15,2013-03-04 10:08:00,
2013-03-04 05:13:00,23.5,17.9,30.09,WSW,237,3.0,3.0,79,0.00,,,0.00,Wunderground v.1.15,2013-03-04 10:13:00,
2013-03-04 05:18:00,23.6,18.0,30.10,WSW,237,1.0,3.0,79,0.00,,,0.00,Wunderground v.1.15,2013-03-04 10:18:00,
2013-03-04 05:23:00,23.5,17.9,30.10,WSW,237,1.0,2.0,79,0.00,,,0.00,Wunderground v.1.15,2013-03-04 10:23:00,
2013-03-04 05:28:00,23.2,17.7,30.10,WSW,237,1.0,2.0,79,0.00,,,0.00,Wunderground v.1.15,2013-03-04 10:28:00,
2013-03-04 05:33:00,23.2,17.7,30.10,WSW,237,1.0,2.0,79,0.00,,,0.00,Wunderground v.1.15,2013-03-04 10:33:00,
2013-03-04 05:38:00,23.0,17.7,30.11,WSW,237,0.0,2.0,80,0.00,,,0.00,Wunderground v.1.15,2013-03-04 10:38:00,
2013-03-04 05:43:00,22.8,17.6,30.11,WSW,237,1.0,2.0,80,0.00,,,0.00,Wunderground v.1.15,2013-03-04 10:43:00,
2013-03-04 05:48:00,22.6,17.6,30.11,WSW,237,0.0,2.0,81,0.00,,,0.00,Wunderground v.1.15,2013-03-04 10:48:00,
2013-03-04 05:53:00,22.3,17.6,30.11,WSW,237,1.0,1.0,82,0.00,,,0.00,Wunderground v.1.15,2013-03-04 10:53:00,
2013-03-04 05:58:00,22.2,17.5,30.11,WSW,240,1.0,3.0,82,0.00,,,0.00,Wunderground v.1.15,2013-03-04 10:58:00,
2013-03-04 06:03:00,22.3,17.4,30.11,WSW,240,0.0,1.0,81,0.00,,,0.00,Wunderground v.1.15,2013-03-04 11:03:00,
2013-03-04 06:08:00,22.6,17.4,30.11,WSW,241,1.0,2.0,80,0.00,,,0.00,Wunderground v.1.15,2013-03-04 11:08:00,
2013-03-04 06:13:00,22.9,17.4,30.12,WSW,241,0.0,2.0,79,0.00,,,0.00,Wunderground v.1.15,2013-03-04 11:13:00,
2013-03-04 06:18:00,22.5,17.3,30.12,WSW,241,1.0,2.0,80,0.00,,,0.00,Wunderground v.1.15,2013-03-04 11:18:00,
2013-03-04 06:23:00,22.6,17.4,30.12,WSW,241,1.0,1.0,80,0.00,,,0.00,Wunderground v.1.15,2013-03-04 11:23:00,
2013-03-04 06:29:00,22.6,17.1,30.12,WSW,241,1.0,1.0,79,0.00,,,0.00,Wunderground v.1.15,2013-03-04 11:29:00,
2013-03-04 06:34:00,22.7,17.2,30.12,WSW,241,1.0,1.0,79,0.00,,,0.00,Wunderground v.1.15,2013-03-04 11:34:00,
2013-03-04 06:40:00,22.5,17.0,30.12,WSW,241,0.0,0.0,79,0.00,,,0.00,Wunderground v.1.15,2013-03-04 11:40:00,
2013-03-04 06:45:00,22.2,16.7,30.13,WSW,241,1.0,2.0,79,0.00,,,0.00,Wunderground v.1.15,2013-03-04 11:45:00,
2013-03-04 06:50:00,22.3,16.8,30.13,WSW,241,0.0,2.0,79,0.00,,,0.00,Wunderground v.1.15,2013-03-04 11:50:00,
2013-03-04 06:55:00,22.4,16.9,30.13,WSW,241,1.0,2.0,79,0.00,,,0.00,Wunderground v.1.15,2013-03-04 11:55:00,
2013-03-04 07:01:00,22.8,17.3,30.13,WSW,241,1.0,2.0,79,0.00,,,0.00,Wunderground v.1.15,2013-03-04 12:01:00,
2013-03-04 07:05:00,22.6,17.4,30.13,WSW,238,1.0,2.0,80,0.00,,,0.00,Wunderground v.1.15,2013-03-04 12:05:00,
2013-03-04 07:10:00,22.1,17.2,30.14,WSW,238,0.0,1.0,81,0.00,,,0.00,Wunderground v.1.15,2013-03-04 12:10:00,
2013-03-04 07:16:00,22.2,17.5,30.14,WSW,238,0.0,1.0,82,0.00,,,0.00,Wunderground v.1.15,2013-03-04 12:16:00,
2013-03-04 07:21:00,22.7,17.7,30.14,WSW,238,0.0,1.0,81,0.00,,,0.00,Wunderground v.1.15,2013-03-04 12:21:00,
2013-03-04 07:26:00,23.5,18.2,30.15,WSW,238,0.0,1.0,80,0.00,,,0.00,Wunderground v.1.15,2013-03-04 12:26:00,
2013-03-04 07:31:00,24.5,18.9,30.15,WSW,238,0.0,1.0,79,0.00,,,0.00,Wunderground v.1.15,2013-03-04 12:31:00,
2013-03-04 07:36:00,25.5,19.0,30.15,WSW,239,0.0,1.0,76,0.00,,,0.00,Wunderground v.1.15,2013-03-04 12:36:00,
2013-03-04 07:41:00,26.4,18.9,30.15,WSW,243,1.0,3.0,73,0.00,,,0.00,Wunderground v.1.15,2013-03-04 12:41:00,
2013-03-04 07:46:00,27.3,19.1,30.16,West,264,0.0,3.0,71,0.00,,,0.00,Wunderground v.1.15,2013-03-04 12:46:00,
2013-03-04 07:51:00,28.0,19.1,30.16,WSW,255,3.0,6.0,69,0.00,,,0.00,Wunderground v.1.15,2013-03-04 12:51:00,
2013-03-04 07:56:00,28.7,19.5,30.16,West,259,2.0,6.0,68,0.00,,,0.00,Wunderground v.1.15,2013-03-04 12:56:00,
2013-03-04 08:01:00,29.4,19.1,30.16,WNW,283,2.0,2.0,65,0.00,,,0.00,Wunderground v.1.15,2013-03-04 13:01:00,
2013-03-04 08:06:00,30.0,18.9,30.17,NW,314,3.0,5.0,63,0.00,,,0.00,Wunderground v.1.15,2013-03-04 13:06:00,
2013-03-04 08:11:00,30.6,19.9,30.17,West,269,5.0,5.0,64,0.00,,,0.00,Wunderground v.1.15,2013-03-04 13:11:00,
2013-03-04 08:16:00,31.1,19.6,30.17,WSW,250,1.0,5.0,62,0.00,,,0.00,Wunderground v.1.15,2013-03-04 13:16:00,
2013-03-04 08:21:00,31.6,18.9,30.17,WNW,287,5.0,8.0,59,0.00,,,0.00,Wunderground v.1.15,2013-03-04 13:21:00,
2013-03-04 08:26:00,32.3,19.6,30.17,NW,317,7.0,8.0,59,0.00,,,0.00,Wunderground v.1.15,2013-03-04 13:26:00,
2013-03-04 08:31:00,32.5,19.3,30.17,NW,308,2.0,5.0,58,0.00,,,0.00,Wunderground v.1.15,2013-03-04 13:31:00,
2013-03-04 08:36:00,32.9,18.5,30.17,NNW,333,2.0,10.0,55,0.00,,,0.00,Wunderground v.1.15,2013-03-04 13:36:00,
2013-03-04 08:41:00,33.4,18.5,30.17,WNW,300,1.0,8.0,54,0.00,,,0.00,Wunderground v.1.15,2013-03-04 13:41:00,
2013-03-04 08:46:00,33.8,19.3,30.17,WNW,295,2.0,8.0,55,0.00,,,0.00,Wunderground v.1.15,2013-03-04 13:46:00,
2013-03-04 08:51:00,34.0,18.6,30.17,NNW,340,3.0,7.0,53,0.00,,,0.00,Wunderground v.1.15,2013-03-04 13:51:00,
2013-03-04 08:56:00,34.2,18.8,30.17,NNW,345,7.0,12.0,53,0.00,,,0.00,Wunderground v.1.15,2013-03-04 13:56:00,
2013-03-04 09:01:00,34.4,18.1,30.17,NW,315,7.0,9.0,51,0.00,,,0.00,Wunderground v.1.15,2013-03-04 14:01:00,
2013-03-04 09:06:00,34.6,17.8,30.17,WNW,291,6.0,14.0,50,0.00,,,0.00,Wunderground v.1.15,2013-03-04 14:06:00,
2013-03-04 09:11:00,35.0,18.7,30.17,NW,311,8.0,11.0,51,0.00,,,0.00,Wunderground v.1.15,2013-03-04 14:11:00,
2013-03-04 09:16:00,35.4,18.1,30.17,NW,323,7.0,11.0,49,0.00,,,0.00,Wunderground v.1.15,2013-03-04 14:16:00,
2013-03-04 09:21:00,35.9,19.0,30.16,WNW,282,6.0,8.0,50,0.00,,,0.00,Wunderground v.1.15,2013-03-04 14:21:00,
2013-03-04 09:26:00,36.2,17.9,30.16,NW,307,3.0,13.0,47,0.00,,,0.00,Wunderground v.1.15,2013-03-04 14:26:00,
2013-03-04 09:31:00,36.3,18.5,30.16,NNW,336,9.0,11.0,48,0.00,,,0.00,Wunderground v.1.15,2013-03-04 14:31:00,
2013-03-04 09:36:00,36.6,18.2,30.16,NW,317,9.0,17.0,47,0.00,,,0.00,Wunderground v.1.15,2013-03-04 14:36:00,
2013-03-04 09:41:00,36.6,17.2,30.16,NNW,330,10.0,13.0,45,0.00,,,0.00,Wunderground v.1.15,2013-03-04 14:41:00,
2013-03-04 09:46:00,36.9,18.0,30.16,WNW,283,4.0,13.0,46,0.00,,,0.00,Wunderground v.1.15,2013-03-04 14:46:00,
2013-03-04 09:51:00,37.4,18.5,30.16,WNW,296,6.0,7.0,46,0.00,,,0.00,Wunderground v.1.15,2013-03-04 14:51:00,
2013-03-04 09:56:00,38.0,18.0,30.16,NW,313,6.0,11.0,44,0.00,,,0.00,Wunderground v.1.15,2013-03-04 14:56:00,
2013-03-04 10:01:00,38.4,17.8,30.16,West,277,8.0,12.0,43,0.00,,,0.00,Wunderground v.1.15,2013-03-04 15:01:00,
2013-03-04 10:06:00,38.2,16.5,30.16,West,269,9.0,17.0,41,0.00,,,0.00,Wunderground v.1.15,2013-03-04 15:06:00,
2013-03-04 10:11:00,38.2,17.1,30.16,WSW,248,5.0,8.0,42,0.00,,,0.00,Wunderground v.1.15,2013-03-04 15:11:00,
2013-03-04 10:16:00,38.7,17.0,30.16,North,7,9.0,11.0,41,0.00,,,0.00,Wunderground v.1.15,2013-03-04 15:16:00,
2013-03-04 10:21:00,38.8,17.1,30.16,WNW,291,3.0,11.0,41,0.00,,,0.00,Wunderground v.1.15,2013-03-04 15:21:00,
2013-03-04 10:26:00,39.0,17.8,30.16,NNW,329,4.0,11.0,42,0.00,,,0.00,Wunderground v.1.15,2013-03-04 15:26:00,
2013-03-04 10:31:00,39.8,17.4,30.16,West,279,2.0,8.0,40,0.00,,,0.00,Wunderground v.1.15,2013-03-04 15:31:00,
2013-03-04 10:36:00,40.2,17.8,30.15,WNW,294,3.0,10.0,40,0.00,,,0.00,Wunderground v.1.15,2013-03-04 15:36:00,
2013-03-04 10:41:00,40.7,18.2,30.16,WNW,299,6.0,8.0,40,0.00,,,0.00,Wunderground v.1.15,2013-03-04 15:41:00,
2013-03-04 10:46:00,40.9,17.2,30.15,WNW,299,3.0,9.0,38,0.00,,,0.00,Wunderground v.1.15,2013-03-04 15:46:00,
2013-03-04 10:51:00,40.8,16.5,30.15,NNE,26,8.0,14.0,37,0.00,,,0.00,Wunderground v.1.15,2013-03-04 15:51:00,
2013-03-04 10:56:00,41.0,16.0,30.15,NNW,328,3.0,14.0,36,0.00,,,0.00,Wunderground v.1.15,2013-03-04 15:56:00,
2013-03-04 11:01:00,41.4,16.4,30.15,NW,321,11.0,11.0,36,0.00,,,0.00,Wunderground v.1.15,2013-03-04 16:01:00,
2013-03-04 11:06:00,41.6,15.9,30.16,NW,312,10.0,15.0,35,0.00,,,0.00,Wunderground v.1.15,2013-03-04 16:06:00,
2013-03-04 11:11:00,41.6,15.9,30.15,NNW,329,16.0,18.0,35,0.00,,,0.00,Wunderground v.1.15,2013-03-04 16:11:00,
2013-03-04 11:16:00,42.0,16.9,30.15,WNW,302,5.0,20.0,36,0.00,,,0.00,Wunderground v.1.15,2013-03-04 16:16:00,
2013-03-04 11:21:00,42.1,16.4,30.15,NE,38,7.0,7.0,35,0.00,,,0.00,Wunderground v.1.15,2013-03-04 16:21:00,
2013-03-04 11:26:00,42.8,16.3,30.15,NNW,330,5.0,12.0,34,0.00,,,0.00,Wunderground v.1.15,2013-03-04 16:26:00,
2013-03-04 11:31:00,43.4,16.2,30.15,SW,229,3.0,6.0,33,0.00,,,0.00,Wunderground v.1.15,2013-03-04 16:31:00,
2013-03-04 11:37:00,43.3,15.4,30.15,WNW,297,4.0,17.0,32,0.00,,,0.00,Wunderground v.1.15,2013-03-04 16:37:00,
2013-03-04 11:42:00,43.7,16.4,30.15,NW,326,2.0,8.0,33,0.00,,,0.00,Wunderground v.1.15,2013-03-04 16:42:00,
2013-03-04 11:47:00,44.7,16.6,30.14,WNW,290,8.0,13.0,32,0.00,,,0.00,Wunderground v.1.15,2013-03-04 16:47:00,
2013-03-04 11:52:00,44.5,17.1,30.14,WSW,242,4.0,7.0,33,0.00,,,0.00,Wunderground v.1.15,2013-03-04 16:52:00,
2013-03-04 11:57:00,44.9,15.3,30.14,NW,319,9.0,12.0,30,0.00,,,0.00,Wunderground v.1.15,2013-03-04 16:57:00,
2013-03-04 12:01:00,45.4,17.2,30.14,North,351,6.0,8.0,32,0.00,,,0.00,Wunderground v.1.15,2013-03-04 17:01:00,
2013-03-04 12:06:00,45.0,15.4,30.13,West,264,12.0,14.0,30,0.00,,,0.00,Wunderground v.1.15,2013-03-04 17:06:00,
2013-03-04 12:11:00,45.7,16.0,30.13,North,6,3.0,7.0,30,0.00,,,0.00,Wunderground v.1.15,2013-03-04 17:11:00,
2013-03-04 12:16:00,45.6,15.9,30.13,West,259,7.0,16.0,30,0.00,,,0.00,Wunderground v.1.15,2013-03-04 17:16:00,
2013-03-04 12:21:00,45.7,16.7,30.13,North,350,6.0,9.0,31,0.00,,,0.00,Wunderground v.1.15,2013-03-04 17:21:00,
2013-03-04 12:26:00,46.2,17.2,30.13,NW,325,5.0,10.0,31,0.00,,,0.00,Wunderground v.1.15,2013-03-04 17:26:00,
2013-03-04 12:31:00,45.6,15.9,30.13,West,269,5.0,7.0,30,0.00,,,0.00,Wunderground v.1.15,2013-03-04 17:31:00,
2013-03-04 12:36:00,46.5,16.7,30.13,North,8,9.0,11.0,30,0.00,,,0.00,Wunderground v.1.15,2013-03-04 17:36:00,
2013-03-04 12:42:00,47.0,17.9,30.13,WNW,290,7.0,7.0,31,0.00,,,0.00,Wunderground v.1.15,2013-03-04 17:42:00,
2013-03-04 12:47:00,47.0,15.5,30.12,WNW,290,6.0,14.0,28,0.00,,,0.00,Wunderground v.1.15,2013-03-04 17:47:00,
2013-03-04 12:52:00,46.7,16.1,30.12,NNW,342,4.0,9.0,29,0.00,,,0.00,Wunderground v.1.15,2013-03-04 17:52:00,
2013-03-04 12:57:00,48.1,16.5,30.12,NNW,340,3.0,9.0,28,0.00,,,0.00,Wunderground v.1.15,2013-03-04 17:57:00,
2013-03-04 13:02:00,47.9,16.3,30.11,North,357,2.0,7.0,28,0.00,,,0.00,Wunderground v.1.15,2013-03-04 18:02:00,
2013-03-04 13:07:00,48.4,16.7,30.11,SSW,206,2.0,12.0,28,0.00,,,0.00,Wunderground v.1.15,2013-03-04 18:07:00,
2013-03-04 13:12:00,48.4,15.9,30.11,WNW,303,2.0,6.0,27,0.00,,,0.00,Wunderground v.1.15,2013-03-04 18:12:00,
2013-03-04 13:17:00,48.7,16.2,30.10,NNW,329,5.0,9.0,27,0.00,,,0.00,Wunderground v.1.15,2013-03-04 18:17:00,
2013-03-04 13:22:00,49.2,16.6,30.10,WSW,252,7.0,12.0,27,0.00,,,0.00,Wunderground v.1.15,2013-03-04 18:22:00,
2013-03-04 13:27:00,49.2,16.6,30.10,WNW,296,3.0,12.0,27,0.00,,,0.00,Wunderground v.1.15,2013-03-04 18:27:00,
2013-03-04 13:29:00,48.9,15.5,30.10,WSW,255,4.0,12.0,26,0.00,,,0.00,Wunderground v.1.15,2013-03-04 18:29:00,
2013-03-04 13:34:00,49.7,17.0,30.10,SSW,193,8.0,12.0,27,0.00,,,0.00,Wunderground v.1.15,2013-03-04 18:34:00,
2013-03-04 13:39:00,49.6,17.8,30.10,NNW,335,1.0,12.0,28,0.00,,,0.00,Wunderground v.1.15,2013-03-04 18:39:00,
2013-03-04 13:44:00,49.6,16.9,30.09,NW,312,6.0,12.0,27,0.00,,,0.00,Wunderground v.1.15,2013-03-04 18:44:00,
2013-03-04 13:49:00,49.7,17.0,30.09,NNE,19,8.0,12.0,27,0.00,,,0.00,Wunderground v.1.15,2013-03-04 18:49:00,
2013-03-04 13:54:00,49.5,16.9,30.09,NNW,336,10.0,10.0,27,0.00,,,0.00,Wunderground v.1.15,2013-03-04 18:54:00,
2013-03-04 13:59:00,50.0,17.3,30.09,NNE,25,4.0,11.0,27,0.00,,,0.00,Wunderground v.1.15,2013-03-04 18:59:00,
2013-03-04 14:04:00,50.4,16.8,30.08,NW,308,4.0,9.0,26,0.00,,,0.00,Wunderground v.1.15,2013-03-04 19:04:00,
2013-03-04 14:09:00,51.3,17.5,30.08,SW,231,7.0,10.0,26,0.00,,,0.00,Wunderground v.1.15,2013-03-04 19:09:00,
2013-03-04 14:14:00,50.3,15.8,30.08,WSW,240,4.0,13.0,25,0.00,,,0.00,Wunderground v.1.15,2013-03-04 19:14:00,
2013-03-04 14:19:00,50.6,16.9,30.08,NW,304,6.0,13.0,26,0.00,,,0.00,Wunderground v.1.15,2013-03-04 19:19:00,
2013-03-04 14:25:00,50.4,16.8,30.08,NNW,343,5.0,13.0,26,0.00,,,0.00,Wunderground v.1.15,2013-03-04 19:25:00,
2013-03-04 14:30:00,50.8,16.2,30.08,NW,306,4.0,13.0,25,0.00,,,0.00,Wunderground v.1.15,2013-03-04 19:30:00,
2013-03-04 14:35:00,51.9,18.9,30.08,NW,318,3.0,7.0,27,0.00,,,0.00,Wunderground v.1.15,2013-03-04 19:35:00,
2013-03-04 14:40:00,51.1,17.4,30.07,NW,322,5.0,12.0,26,0.00,,,0.00,Wunderground v.1.15,2013-03-04 19:40:00,
2013-03-04 14:45:00,51.8,17.0,30.07,NE,38,3.0,7.0,25,0.00,,,0.00,Wunderground v.1.15,2013-03-04 19:45:00,
2013-03-04 14:50:00,51.0,16.4,30.07,West,269,6.0,14.0,25,0.00,,,0.00,Wunderground v.1.15,2013-03-04 19:50:00,
2013-03-04 14:55:00,51.3,17.5,30.07,NNW,334,8.0,10.0,26,0.00,,,0.00,Wunderground v.1.15,2013-03-04 19:55:00,
2013-03-04 15:00:00,51.3,17.5,30.07,West,277,4.0,10.0,26,0.00,,,0.00,Wunderground v.1.15,2013-03-04 20:00:00,
2013-03-04 15:05:00,51.6,16.9,30.07,West,280,7.0,9.0,25,0.00,,,0.00,Wunderground v.1.15,2013-03-04 20:05:00,
2013-03-04 15:10:00,51.7,17.0,30.07,NNE,17,5.0,12.0,25,0.00,,,0.00,Wunderground v.1.15,2013-03-04 20:10:00,
2013-03-04 15:15:00,51.2,16.5,30.07,NE,56,4.0,11.0,25,0.00,,,0.00,Wunderground v.1.15,2013-03-04 20:15:00,
2013-03-04 15:20:00,52.6,19.5,30.07,NNW,331,12.0,12.0,27,0.00,,,0.00,Wunderground v.1.15,2013-03-04 20:20:00,
2013-03-04 15:25:00,51.9,17.1,30.07,NW,315,3.0,14.0,25,0.00,,,0.00,Wunderground v.1.15,2013-03-04 20:25:00,
2013-03-04 15:30:00,51.4,17.6,30.07,WSW,250,3.0,14.0,26,0.00,,,0.00,Wunderground v.1.15,2013-03-04 20:30:00,
2013-03-04 15:35:00,51.4,16.7,30.07,NNW,328,4.0,10.0,25,0.00,,,0.00,Wunderground v.1.15,2013-03-04 20:35:00,
2013-03-04 15:40:00,51.9,17.1,30.07,WNW,296,8.0,10.0,25,0.00,,,0.00,Wunderground v.1.15,2013-03-04 20:40:00,
2013-03-04 15:45:00,51.8,17.0,30.07,NE,42,9.0,11.0,25,0.00,,,0.00,Wunderground v.1.15,2013-03-04 20:45:00,
2013-03-04 15:50:00,51.5,17.7,30.07,NW,325,5.0,11.0,26,0.00,,,0.00,Wunderground v.1.15,2013-03-04 20:50:00,
2013-03-04 15:55:00,51.7,17.0,30.06,NNW,327,3.0,6.0,25,0.00,,,0.00,Wunderground v.1.15,2013-03-04 20:55:00,
2013-03-04 16:00:00,51.9,17.1,30.06,NNW,331,2.0,10.0,25,0.00,,,0.00,Wunderground v.1.15,2013-03-04 21:00:00,
2013-03-04 16:05:00,51.9,17.1,30.07,NNW,329,3.0,11.0,25,0.00,,,0.00,Wunderground v.1.15,2013-03-04 21:05:00,
2013-03-04 16:10:00,51.5,16.8,30.07,North,358,5.0,5.0,25,0.00,,,0.00,Wunderground v.1.15,2013-03-04 21:10:00,
2013-03-04 16:15:00,51.8,17.0,30.07,SSW,210,7.0,7.0,25,0.00,,,0.00,Wunderground v.1.15,2013-03-04 21:15:00,
2013-03-04 16:20:00,52.2,17.4,30.07,SW,227,5.0,5.0,25,0.00,,,0.00,Wunderground v.1.15,2013-03-04 21:20:00,
2013-03-04 16:25:00,52.1,16.4,30.07,West,259,3.0,11.0,24,0.00,,,0.00,Wunderground v.1.15,2013-03-04 21:25:00,
2013-03-04 16:30:00,51.7,16.0,30.07,NW,323,2.0,5.0,24,0.00,,,0.00,Wunderground v.1.15,2013-03-04 21:30:00,
2013-03-04 16:35:00,51.8,17.0,30.07,WNW,300,4.0,7.0,25,0.00,,,0.00,Wunderground v.1.15,2013-03-04 21:35:00,
2013-03-04 16:40:00,51.6,17.8,30.07,WNW,302,0.0,4.0,26,0.00,,,0.00,Wunderground v.1.15,2013-03-04 21:40:00,
2013-03-04 16:45:00,51.5,16.8,30.07,West,269,4.0,8.0,25,0.00,,,0.00,Wunderground v.1.15,2013-03-04 21:45:00,
2013-03-04 16:50:00,51.4,15.8,30.07,WNW,302,2.0,4.0,24,0.00,,,0.00,Wunderground v.1.15,2013-03-04 21:50:00,
2013-03-04 16:55:00,51.4,17.6,30.07,SSW,196,6.0,9.0,26,0.00,,,0.00,Wunderground v.1.15,2013-03-04 21:55:00,
2013-03-04 17:00:00,51.3,16.6,30.07,West,275,6.0,6.0,25,0.00,,,0.00,Wunderground v.1.15,2013-03-04 22:00:00,
2013-03-04 17:05:00,51.2,16.5,30.07,SSW,198,5.0,8.0,25,0.00,,,0.00,Wunderground v.1.15,2013-03-04 22:05:00,
2013-03-04 17:11:00,51.0,17.3,30.07,WSW,252,3.0,5.0,26,0.00,,,0.00,Wunderground v.1.15,2013-03-04 22:11:00,
2013-03-04 17:17:00,50.9,16.3,30.07,NW,313,4.0,6.0,25,0.00,,,0.00,Wunderground v.1.15,2013-03-04 22:17:00,
2013-03-04 17:22:00,50.5,15.9,30.08,SW,224,2.0,5.0,25,0.00,,,0.00,Wunderground v.1.15,2013-03-04 22:22:00,
2013-03-04 17:27:00,50.4,15.8,30.08,West,280,3.0,5.0,25,0.00,,,0.00,Wunderground v.1.15,2013-03-04 22:27:00,
2013-03-04 17:32:00,50.1,16.5,30.08,WNW,291,2.0,3.0,26,0.00,,,0.00,Wunderground v.1.15,2013-03-04 22:32:00,
2013-03-04 17:37:00,49.9,16.3,30.08,West,281,3.0,6.0,26,0.00,,,0.00,Wunderground v.1.15,2013-03-04 22:37:00,
2013-03-04 17:42:00,49.6,17.8,30.08,West,273,2.0,3.0,28,0.00,,,0.00,Wunderground v.1.15,2013-03-04 22:42:00,
2013-03-04 17:47:00,48.9,19.5,30.08,West,274,1.0,3.0,31,0.00,,,0.00,Wunderground v.1.15,2013-03-04 22:47:00,
2013-03-04 17:52:00,47.9,18.7,30.08,SSW,204,2.0,3.0,31,0.00,,,0.00,Wunderground v.1.15,2013-03-04 22:52:00,
2013-03-04 17:57:00,47.6,19.9,30.08,SW,229,0.0,3.0,33,0.00,,,0.00,Wunderground v.1.15,2013-03-04 22:57:00,
2013-03-04 18:02:00,47.0,18.6,30.09,West,259,1.0,3.0,32,0.00,,,0.00,Wunderground v.1.15,2013-03-04 23:02:00,
2013-03-04 18:07:00,45.9,21.1,30.08,West,259,1.0,3.0,37,0.00,,,0.00,Wunderground v.1.15,2013-03-04 23:07:00,
2013-03-04 18:13:00,44.7,21.2,30.09,West,259,2.0,2.0,39,0.00,,,0.00,Wunderground v.1.15,2013-03-04 23:13:00,
2013-03-04 18:18:00,43.8,21.6,30.09,West,259,1.0,2.0,41,0.00,,,0.00,Wunderground v.1.15,2013-03-04 23:18:00,
2013-03-04 18:23:00,42.4,22.5,30.09,West,259,1.0,2.0,45,0.00,,,0.00,Wunderground v.1.15,2013-03-04 23:23:00,
2013-03-04 18:28:00,42.0,21.6,30.09,West,259,1.0,2.0,44,0.00,,,0.00,Wunderground v.1.15,2013-03-04 23:28:00,
2013-03-04 18:33:00,41.7,22.4,30.09,West,259,2.0,3.0,46,0.00,,,0.00,Wunderground v.1.15,2013-03-04 23:33:00,
2013-03-04 18:38:00,40.7,23.0,30.09,West,259,0.0,3.0,49,0.00,,,0.00,Wunderground v.1.15,2013-03-04 23:38:00,
2013-03-04 18:43:00,39.9,22.7,30.10,West,259,1.0,2.0,50,0.00,,,0.00,Wunderground v.1.15,2013-03-04 23:43:00,
2013-03-04 18:48:00,39.5,22.8,30.10,SSW,205,2.0,3.0,51,0.00,,,0.00,Wunderground v.1.15,2013-03-04 23:48:00,
2013-03-04 18:53:00,39.1,23.4,30.10,SSW,205,2.0,3.0,53,0.00,,,0.00,Wunderground v.1.15,2013-03-04 23:53:00,
2013-03-04 18:58:00,38.1,22.5,30.10,SSW,205,1.0,3.0,53,0.00,,,0.00,Wunderground v.1.15,2013-03-04 23:58:00,
2013-03-04 19:03:00,37.8,23.5,30.10,SSW,205,1.0,2.0,56,0.00,,,0.00,Wunderground v.1.15,2013-03-05 00:03:00,
2013-03-04 19:08:00,37.6,23.3,30.09,SSW,205,0.0,2.0,56,0.00,,,0.00,Wunderground v.1.15,2013-03-05 00:08:00,
2013-03-04 19:13:00,37.3,22.6,30.10,SSW,205,0.0,2.0,55,0.00,,,0.00,Wunderground v.1.15,2013-03-05 00:13:00,
2013-03-04 19:18:00,36.8,23.0,30.10,SSW,205,1.0,2.0,57,0.00,,,0.00,Wunderground v.1.15,2013-03-05 00:18:00,
2013-03-04 19:23:00,36.6,22.8,30.10,SSW,205,1.0,2.0,57,0.00,,,0.00,Wunderground v.1.15,2013-03-05 00:23:00,
2013-03-04 19:28:00,36.7,22.9,30.10,SSW,205,2.0,2.0,57,0.00,,,0.00,Wunderground v.1.15,2013-03-05 00:28:00,
2013-03-04 19:33:00,36.4,23.0,30.11,SSW,205,2.0,3.0,58,0.00,,,0.00,Wunderground v.1.15,2013-03-05 00:33:00,
2013-03-04 19:38:00,36.1,23.1,30.11,SSW,205,1.0,3.0,59,0.00,,,0.00,Wunderground v.1.15,2013-03-05 00:38:00,
2013-03-04 19:43:00,36.3,23.3,30.11,SSW,207,2.0,2.0,59,0.00,,,0.00,Wunderground v.1.15,2013-03-05 00:43:00,
2013-03-04 19:48:00,35.9,23.0,30.11,SSW,207,1.0,2.0,59,0.00,,,0.00,Wunderground v.1.15,2013-03-05 00:48:00,
2013-03-04 19:54:00,35.6,23.5,30.11,SSW,208,1.0,2.0,61,0.00,,,0.00,Wunderground v.1.15,2013-03-05 00:54:00,
2013-03-04 19:59:00,35.0,23.3,30.11,SSW,208,2.0,2.0,62,0.00,,,0.00,Wunderground v.1.15,2013-03-05 00:59:00,
2013-03-04 20:04:00,34.4,23.5,30.11,SSW,208,1.0,2.0,64,0.00,,,0.00,Wunderground v.1.15,2013-03-05 01:04:00,
2013-03-04 20:09:00,33.6,23.1,30.11,SSW,208,2.0,2.0,65,0.00,,,0.00,Wunderground v.1.15,2013-03-05 01:09:00,
2013-03-04 20:14:00,33.7,23.2,30.12,SSW,208,2.0,2.0,65,0.00,,,0.00,Wunderground v.1.15,2013-03-05 01:14:00,
2013-03-04 20:20:00,34.4,23.5,30.12,SSW,201,2.0,2.0,64,0.00,,,0.00,Wunderground v.1.15,2013-03-05 01:20:00,
2013-03-04 20:25:00,34.2,23.3,30.11,SSW,201,2.0,3.0,64,0.00,,,0.00,Wunderground v.1.15,2013-03-05 01:25:00,
2013-03-04 20:30:00,33.8,22.9,30.11,SSW,201,1.0,2.0,64,0.00,,,0.00,Wunderground v.1.15,2013-03-05 01:30:00,
2013-03-04 20:35:00,33.7,23.2,30.11,SSW,201,2.0,2.0,65,0.00,,,0.00,Wunderground v.1.15,2013-03-05 01:35:00,
2013-03-04 20:40:00,33.5,22.6,30.11,SSW,201,2.0,2.0,64,0.00,,,0.00,Wunderground v.1.15,2013-03-05 01:40:00,
2013-03-04 20:45:00,33.0,22.5,30.11,SSW,201,1.0,3.0,65,0.00,,,0.00,Wunderground v.1.15,2013-03-05 01:45:00,
2013-03-04 20:50:00,32.8,23.0,30.11,SSW,201,2.0,2.0,67,0.00,,,0.00,Wunderground v.1.15,2013-03-05 01:50:00,
2013-03-04 20:55:00,33.1,22.6,30.11,SSW,201,0.0,2.0,65,0.00,,,0.00,Wunderground v.1.15,2013-03-05 01:55:00,
2013-03-04 21:00:00,33.2,23.1,30.11,SSW,201,1.0,1.0,66,0.00,,,0.00,Wunderground v.1.15,2013-03-05 02:00:00,
2013-03-04 21:05:00,32.8,23.0,30.11,SSW,201,0.0,1.0,67,0.00,,,0.00,Wunderground v.1.15,2013-03-05 02:05:00,
2013-03-04 21:10:00,32.3,22.6,30.11,SSW,201,0.0,0.0,67,0.00,,,0.00,Wunderground v.1.15,2013-03-05 02:10:00,
2013-03-04 21:15:00,32.0,23.0,30.12,SSW,201,0.0,0.0,69,0.00,,,0.00,Wunderground v.1.15,2013-03-05 02:15:00,
2013-03-04 21:20:00,31.6,22.9,30.12,SSW,201,0.0,0.0,70,0.00,,,0.00,Wunderground v.1.15,2013-03-05 02:20:00,
2013-03-04 21:25:00,31.1,22.8,30.12,SSW,201,0.0,0.0,71,0.00,,,0.00,Wunderground v.1.15,2013-03-05 02:25:00,
2013-03-04 21:30:00,30.9,22.9,30.12,SSW,201,0.0,0.0,72,0.00,,,0.00,Wunderground v.1.15,2013-03-05 02:30:00,
2013-03-04 21:35:00,30.5,23.2,30.12,SSW,201,0.0,0.0,74,0.00,,,0.00,Wunderground v.1.15,2013-03-05 02:35:00,
2013-03-04 21:40:00,31.2,23.5,30.12,SSW,201,0.0,0.0,73,0.00,,,0.00,Wunderground v.1.15,2013-03-05 02:40:00,
2013-03-04 21:45:00,30.8,23.5,30.12,SSW,201,0.0,0.0,74,0.00,,,0.00,Wunderground v.1.15,2013-03-05 02:45:00,
2013-03-04 21:50:00,30.5,23.2,30.12,SSW,201,0.0,0.0,74,0.00,,,0.00,Wunderground v.1.15,2013-03-05 02:50:00,
2013-03-04 21:55:00,30.7,23.7,30.12,SSW,201,0.0,0.0,75,0.00,,,0.00,Wunderground v.1.15,2013-03-05 02:55:00,
2013-03-04 22:00:00,30.5,23.5,30.12,SSW,201,1.0,2.0,75,0.00,,,0.00,Wunderground v.1.15,2013-03-05 03:00:00,
2013-03-04 22:06:00,30.2,23.5,30.12,SSW,201,1.0,2.0,76,0.00,,,0.00,Wunderground v.1.15,2013-03-05 03:06:00,
2013-03-04 22:11:00,30.0,23.7,30.12,SSW,201,0.0,1.0,77,0.00,,,0.00,Wunderground v.1.15,2013-03-05 03:11:00,
2013-03-04 22:16:00,30.1,23.8,30.12,SSW,201,1.0,1.0,77,0.00,,,0.00,Wunderground v.1.15,2013-03-05 03:16:00,
2013-03-04 22:21:00,30.0,23.7,30.11,SSW,201,0.0,0.0,77,0.00,,,0.00,Wunderground v.1.15,2013-03-05 03:21:00,
2013-03-04 22:26:00,29.9,23.6,30.12,SSW,201,0.0,0.0,77,0.00,,,0.00,Wunderground v.1.15,2013-03-05 03:26:00,
2013-03-04 22:31:00,30.1,24.1,30.12,SSW,201,0.0,0.0,78,0.00,,,0.00,Wunderground v.1.15,2013-03-05 03:31:00,
2013-03-04 22:36:00,30.3,24.0,30.12,SSW,201,1.0,1.0,77,0.00,,,0.00,Wunderground v.1.15,2013-03-05 03:36:00,
2013-03-04 22:41:00,30.6,24.2,30.12,SSW,201,1.0,2.0,77,0.00,,,0.00,Wunderground v.1.15,2013-03-05 03:41:00,
2013-03-04 22:46:00,30.6,24.2,30.12,SSW,201,1.0,2.0,77,0.00,,,0.00,Wunderground v.1.15,2013-03-05 03:46:00,
2013-03-04 22:51:00,30.6,24.6,30.12,SSW,201,0.0,1.0,78,0.00,,,0.00,Wunderground v.1.15,2013-03-05 03:51:00,
2013-03-04 22:57:00,30.7,24.7,30.12,SSW,201,1.0,2.0,78,0.00,,,0.00,Wunderground v.1.15,2013-03-05 03:57:00,
2013-03-04 23:02:00,30.9,25.2,30.11,SSW,201,0.0,1.0,79,0.00,,,0.00,Wunderground v.1.15,2013-03-05 04:02:00,
2013-03-04 23:07:00,31.0,24.6,30.11,SSW,201,0.0,1.0,77,0.00,,,0.00,Wunderground v.1.15,2013-03-05 04:07:00,
2013-03-04 23:12:00,31.2,25.4,30.12,SSW,201,0.0,0.0,79,0.00,,,0.00,Wunderground v.1.15,2013-03-05 04:12:00,
2013-03-04 23:17:00,31.2,25.4,30.12,SSW,201,1.0,2.0,79,0.00,,,0.00,Wunderground v.1.15,2013-03-05 04:17:00,
2013-03-04 23:22:00,31.6,25.2,30.11,SSW,201,0.0,1.0,77,0.00,,,0.00,Wunderground v.1.15,2013-03-05 04:22:00,
2013-03-04 23:27:00,32.0,25.6,30.11,SSW,201,1.0,2.0,77,0.00,,,0.00,Wunderground v.1.15,2013-03-05 04:27:00,
2013-03-04 23:32:00,32.3,25.9,30.11,SSW,201,0.0,2.0,77,0.00,,,0.00,Wunderground v.1.15,2013-03-05 04:32:00,
2013-03-04 23:37:00,32.1,25.7,30.11,SSW,201,0.0,2.0,77,0.00,,,0.00,Wunderground v.1.15,2013-03-05 04:37:00,
2013-03-04 23:42:00,32.3,25.6,30.11,SSW,206,0.0,1.0,76,0.00,,,0.00,Wunderground v.1.15,2013-03-05 04:42:00,
2013-03-04 23:47:00,32.1,25.4,30.11,SSW,206,0.0,1.0,76,0.00,,,0.00,Wunderground v.1.15,2013-03-05 04:47:00,
2013-03-04 23:52:00,32.0,25.0,30.11,SSW,206,0.0,0.0,75,0.00,,,0.00,Wunderground v.1.15,2013-03-05 04:52:00,
2013-03-04 23:57:00,31.9,25.2,30.11,SSW,206,0.0,0.0,76,0.00,,,0.00,Wunderground v.1.15,2013-03-05 04:57:00,